[{"OBJECT_NAME":"HAWK-2A","OBJECT_ID":"2021-006CW","EPOCH":"2026-09-12T02:33:14.667264","MEAN_MOTION":15.35643745,"ECCENTRICITY":0.00045774,"INCLINATION":97.2243,"RA_OF_ASC_NODE":298.4339,"ARG_OF_PERICENTER":245.97,"MEAN_ANOMALY":114.1066,"EPHEMERIS_TYPE":0,"CLASSIFICATION_TYPE":"U","NORAD_CAT_ID":47505,"ELEMENT_SET_NO":999,"REV_AT_EPOCH":31283,"BSTAR":0.00013008352,"MEAN_MOTION_DOT":0.0000443,"MEAN_MOTION_DDOT":0},{"OBJECT_NAME":"HAWK-2B","OBJECT_ID":"2021-006CZ","EPOCH":"2026-09-12T02:16:32.691648","MEAN_MOTION":15.35802806,"ECCENTRICITY":0.00050686,"INCLINATION":97.2115,"RA_OF_ASC_NODE":296.62,"ARG_OF_PERICENTER":242.9404,"MEAN_ANOMALY":117.1324,"EPHEMERIS_TYPE":0,"CLASSIFICATION_TYPE":"U","NORAD_CAT_ID":47508,"ELEMENT_SET_NO":999,"REV_AT_EPOCH":31283,"BSTAR":0.00015259491,"MEAN_MOTION_DOT":0.00005237,"MEAN_MOTION_DDOT":0},{"OBJECT_NAME":"HAWK-3B","OBJECT_ID":"2021-059BE","EPOCH":"2026-09-12T01:58:54.365952","MEAN_MOTION":15.77185126,"ECCENTRICITY":0.0003853,"INCLINATION":97.6558,"RA_OF_ASC_NODE":100.4846,"ARG_OF_PERICENTER":16.6556,"MEAN_ANOMALY":343.4835,"EPHEMERIS_TYPE":0,"CLASSIFICATION_TYPE":"U","NORAD_CAT_ID":48931,"ELEMENT_SET_NO":999,"REV_AT_EPOCH":29151,"BSTAR":0.00028576251,"MEAN_MOTION_DOT":0.00046637,"MEAN_MOTION_DDOT":0},{"OBJECT_NAME":"HAWK-3C","OBJECT_ID":"2021-059BX","EPOCH":"2026-09-12T03:29:48.264000","MEAN_MOTION":15.77195428,"ECCENTRICITY":0.00038285,"INCLINATION":97.6663,"RA_OF_ASC_NODE":106.3796,"ARG_OF_PERICENTER":18.8004,"MEAN_ANOMALY":341.3402,"EPHEMERIS_TYPE":0,"CLASSIFICATION_TYPE":"U","NORAD_CAT_ID":48948,"ELEMENT_SET_NO":999,"REV_AT_EPOCH":29152,"BSTAR":0.00030158785,"MEAN_MOTION_DOT":0.00049265,"MEAN_MOTION_DDOT":0},{"OBJECT_NAME":"HAWK-3A","OBJECT_ID":"2021-059CG","EPOCH":"2026-09-12T03:29:38.775552","MEAN_MOTION":15.77191558,"ECCENTRICITY":0.00039926,"INCLINATION":97.661,"RA_OF_ASC_NODE":103.518,"ARG_OF_PERICENTER":18.4977,"MEAN_ANOMALY":341.6432,"EPHEMERIS_TYPE":0,"CLASSIFICATION_TYPE":"U","NORAD_CAT_ID":48957,"ELEMENT_SET_NO":999,"REV_AT_EPOCH":29152,"BSTAR":0.0002776591,"MEAN_MOTION_DOT":0.00045318,"MEAN_MOTION_DDOT":0},{"OBJECT_NAME":"HAWK-5C","OBJECT_ID":"2022-057Y","EPOCH":"2026-09-11T23:26:01.312512","MEAN_MOTION":15.54185352,"ECCENTRICITY":0.00048049,"INCLINATION":97.6672,"RA_OF_ASC_NODE":60.4797,"ARG_OF_PERICENTER":109.0523,"MEAN_ANOMALY":251.125,"EPHEMERIS_TYPE":0,"CLASSIFICATION_TYPE":"U","NORAD_CAT_ID":52754,"ELEMENT_SET_NO":999,"REV_AT_EPOCH":23981,"BSTAR":0.00027391592,"MEAN_MOTION_DOT":0.00017743,"MEAN_MOTION_DDOT":0},{"OBJECT_NAME":"HAWK-5B","OBJECT_ID":"2022-057AA","EPOCH":"2026-09-12T07:09:21.622752","MEAN_MOTION":15.54185388,"ECCENTRICITY":0.00055222,"INCLINATION":97.669,"RA_OF_ASC_NODE":59.1887,"ARG_OF_PERICENTER":103.426,"MEAN_ANOMALY":256.7609,"EPHEMERIS_TYPE":0,"CLASSIFICATION_TYPE":"U","NORAD_CAT_ID":52756,"ELEMENT_SET_NO":999,"REV_AT_EPOCH":23986,"BSTAR":0.00023729838,"MEAN_MOTION_DOT":0.00015354,"MEAN_MOTION_DDOT":0},{"OBJECT_NAME":"HAWK-5A","OBJECT_ID":"2022-057AB","EPOCH":"2026-09-12T05:36:22.392000","MEAN_MOTION":15.54180467,"ECCENTRICITY":0.00054219,"INCLINATION":97.6684,"RA_OF_ASC_NODE":59.9463,"ARG_OF_PERICENTER":106.6517,"MEAN_ANOMALY":253.5331,"EPHEMERIS_TYPE":0,"CLASSIFICATION_TYPE":"U","NORAD_CAT_ID":52757,"ELEMENT_SET_NO":999,"REV_AT_EPOCH":23985,"BSTAR":0.00023252981,"MEAN_MOTION_DOT":0.0001504,"MEAN_MOTION_DDOT":0},{"OBJECT_NAME":"HAWK-6B","OBJECT_ID":"2023-011A","EPOCH":"2026-09-12T05:58:32.793888","MEAN_MOTION":15.23580715,"ECCENTRICITY":0.00035852,"INCLINATION":40.4973,"RA_OF_ASC_NODE":204.0044,"ARG_OF_PERICENTER":282.2968,"MEAN_ANOMALY":77.744,"EPHEMERIS_TYPE":0,"CLASSIFICATION_TYPE":"U","NORAD_CAT_ID":55324,"ELEMENT_SET_NO":999,"REV_AT_EPOCH":20112,"BSTAR":0.00014332867,"MEAN_MOTION_DOT":0.00003306,"MEAN_MOTION_DDOT":0},{"OBJECT_NAME":"HAWK-6C","OBJECT_ID":"2023-011C","EPOCH":"2026-09-12T05:57:38.273760","MEAN_MOTION":15.23585105,"ECCENTRICITY":0.00043396,"INCLINATION":40.4962,"RA_OF_ASC_NODE":200.8365,"ARG_OF_PERICENTER":273.3751,"MEAN_ANOMALY":86.6562,"EPHEMERIS_TYPE":0,"CLASSIFICATION_TYPE":"U","NORAD_CAT_ID":55326,"ELEMENT_SET_NO":999,"REV_AT_EPOCH":20113,"BSTAR":0.00015483329,"MEAN_MOTION_DOT":0.00003588,"MEAN_MOTION_DDOT":0},{"OBJECT_NAME":"HAWK-6A","OBJECT_ID":"2023-011D","EPOCH":"2026-09-12T04:23:16.766016","MEAN_MOTION":15.23582905,"ECCENTRICITY":0.00039486,"INCLINATION":40.4973,"RA_OF_ASC_NODE":202.8517,"ARG_OF_PERICENTER":269.8255,"MEAN_ANOMALY":90.2102,"EPHEMERIS_TYPE":0,"CLASSIFICATION_TYPE":"U","NORAD_CAT_ID":55327,"ELEMENT_SET_NO":999,"REV_AT_EPOCH":20112,"BSTAR":0.00015147489,"MEAN_MOTION_DOT":0.00003505,"MEAN_MOTION_DDOT":0},{"OBJECT_NAME":"HAWK-7A","OBJECT_ID":"2023-054P","EPOCH":"2026-09-12T03:45:07.180704","MEAN_MOTION":15.2814713,"ECCENTRICITY":0.00047484,"INCLINATION":97.2554,"RA_OF_ASC_NODE":140.2654,"ARG_OF_PERICENTER":87.692,"MEAN_ANOMALY":272.4863,"EPHEMERIS_TYPE":0,"CLASSIFICATION_TYPE":"U","NORAD_CAT_ID":56191,"ELEMENT_SET_NO":999,"REV_AT_EPOCH":19030,"BSTAR":0.00015291208,"MEAN_MOTION_DOT":0.00004124,"MEAN_MOTION_DDOT":0},{"OBJECT_NAME":"HAWK-7B","OBJECT_ID":"2023-054R","EPOCH":"2026-09-12T03:45:01.672704","MEAN_MOTION":15.28149037,"ECCENTRICITY":0.00038112,"INCLINATION":97.2579,"RA_OF_ASC_NODE":138.5591,"ARG_OF_PERICENTER":95.0118,"MEAN_ANOMALY":265.1557,"EPHEMERIS_TYPE":0,"CLASSIFICATION_TYPE":"U","NORAD_CAT_ID":56193,"ELEMENT_SET_NO":999,"REV_AT_EPOCH":19030,"BSTAR":0.00015263725,"MEAN_MOTION_DOT":0.00004116,"MEAN_MOTION_DDOT":0},{"OBJECT_NAME":"HAWK-7C","OBJECT_ID":"2023-054Y","EPOCH":"2026-09-12T03:44:50.356032","MEAN_MOTION":15.2814875,"ECCENTRICITY":0.00041233,"INCLINATION":97.2557,"RA_OF_ASC_NODE":139.3009,"ARG_OF_PERICENTER":86.8068,"MEAN_ANOMALY":273.3644,"EPHEMERIS_TYPE":0,"CLASSIFICATION_TYPE":"U","NORAD_CAT_ID":56200,"ELEMENT_SET_NO":999,"REV_AT_EPOCH":19030,"BSTAR":0.00015186071,"MEAN_MOTION_DOT":0.00004095,"MEAN_MOTION_DDOT":0}]